Regional Weather Roundup
Issued by NWS Memphis, TN

Home | Current Version | Previous Version | Text Only | Print | Product List | Glossary On
Versions: 1 2 3 4 5 6 7 8 9 10 11 12 13 14 15 16 17 18 19 20 21 22 23 24 25 26 27 28 29 30 31 32 33 34 35 36 37 38 39 40 41 42 43 44 45 46 47 48 49 50
962
ASUS44 KMEG 080610
RWRMEG
MEMPHIS CWA HOURLY WEATHER ROUNDUP
NATIONAL WEATHER SERVICE MEMPHIS TN
1200 AM CST MON FEB 08 2016

...WEST TENNESSEE...

CITY           SKY/WX    TMP DP  RH WIND       PRES   REMARKS
MEMPHIS INTL   CLOUDY    47  31  53 W5        29.95F
6HR MIN TEMP:  47; 6HR MAX TEMP:  53;

NWS MEMPHIS      N/A     48 N/A N/A MISG        N/A
JACKSON        PTCLDY    45  31  58 W9        29.92F
6HR MIN TEMP:  44; 6HR MAX TEMP:  51;

DYERSBURG      CLOUDY    46  30  53 W8        29.94S
6HR MIN TEMP:  46; 6HR MAX TEMP:  52;

UNION CITY     PTCLDY    45  34  65 W5        29.88F
PARIS          CLOUDY    43  28  56 W12       29.89S


...EASTERN ARKANSAS...

CITY           SKY/WX    TMP DP  RH WIND       PRES   REMARKS
JONESBORO      CLEAR     46  27  47 W9        29.96F
6HR MIN TEMP:  45; 6HR MAX TEMP:  53;

WEST MEMPHIS   HAZE      45  35  68 NW3       29.96F VSB 3/4
6HR MIN TEMP:  45; 6HR MAX TEMP:  53;

BATESVILLE     CLEAR     46  19  34 W7        30.00F
6HR MIN TEMP:  46; 6HR MAX TEMP:  52;

NEWPORT        CLEAR     47  24  40 W13       30.00S
6HR MIN TEMP:  44; 6HR MAX TEMP:  54;

WALNUT RIDGE   CLEAR     43  23  45 W8        29.96S
6HR MIN TEMP:  43; 6HR MAX TEMP:  54;

BLYTHEVILLE    CLOUDY    48  31  51 W12       29.94F
6HR MIN TEMP:  47; 6HR MAX TEMP:  52;

SEARCY         PTCLDY    46  28  49 W6        30.02F
6HR MIN TEMP:  46; 6HR MAX TEMP:  54;

STUTTGART      MOCLDY    46  34  61 W10       30.02F
6HR MIN TEMP:  45; 6HR MAX TEMP:  52;

PINE BLUFF     CLOUDY    49  30  48 W7        30.04F
6HR MIN TEMP:  49; 6HR MAX TEMP:  56;

MONTICELLO     CLEAR     47  29  49 W6        30.04F
6HR MIN TEMP:  46; 6HR MAX TEMP:  57;



...NORTH MISSISSIPPI...

CITY           SKY/WX    TMP DP  RH WIND       PRES   REMARKS
TUPELO         CLEAR     47  29  49 SW8       29.97F
6HR MIN TEMP:  43; 6HR MAX TEMP:  52;

OXFORD         CLEAR     45  32  61 CALM      29.98F
TUNICA         CLOUDY    46  32  57 W9        29.99F
CORINTH        PTCLDY    46  32  57 W9        29.93F
GREENWOOD      CLEAR     48  31  51 SW8       30.02F
6HR MIN TEMP:  40; 6HR MAX TEMP:  52;

COLUMBUS       MOCLDY    42  31  63 SW10      29.99F
6HR MIN TEMP:  36; 6HR MAX TEMP:  47;

GOLDEN TRIANGL CLEAR     45  28  53 SW10      30.00F
6HR MIN TEMP:  41; 6HR MAX TEMP:  52;



...SOUTHEAST MISSOURI...

CITY           SKY/WX    TMP DP  RH WIND       PRES   REMARKS
WEST PLAINS    CLEAR     40  17  39 W15G23    29.94F WCI  32
6HR MIN TEMP:  40; 6HR MAX TEMP:  49;

POPLAR BLUFF   PTCLDY    45  24  43 W8        29.90F
6HR MIN TEMP:  45; 6HR MAX TEMP:  54;

CAPE GIRARDEAU PTCLDY    36  29  75 W9        29.87F WCI  29
6HR MIN TEMP:  36; 6HR MAX TEMP:  50;



...NORTHWEST ALABAMA...

CITY           SKY/WX    TMP DP  RH WIND       PRES   REMARKS
MUSCLE SHOALS  CLEAR     46  29  51 W13       29.94F
6HR MIN TEMP:  42; 6HR MAX TEMP:  49;



...MIDDLE TENNESSEE...

CITY           SKY/WX    TMP DP  RH WIND       PRES   REMARKS
NASHVILLE      CLOUDY    48  24  39 SW9       29.86F
6HR MIN TEMP:  46; 6HR MAX TEMP:  52;

CLARKSVILLE    CLOUDY    48  31  51 NW20G30   29.86S
6HR MIN TEMP:  48; 6HR MAX TEMP:  52;

COLUMBIA       CLEAR     43  30  61 SW9       29.87F


...WESTERN KENTUCKY...

CITY           SKY/WX    TMP DP  RH WIND       PRES   REMARKS
PADUCAH        CLOUDY    46  28  49 W12G17    29.86F
6HR MIN TEMP:  45; 6HR MAX TEMP:  52; 6HR PCP: TRACE;

FORT CAMPBELL  MOCLDY    47  32  56 W14       29.86R
6HR MIN TEMP:  45; 6HR MAX TEMP:  51;



...CENTRAL ARKANSAS...

CITY           SKY/WX    TMP DP  RH WIND       PRES   REMARKS
LITTLE ROCK    CLOUDY    51  26  37 W13       30.04F
6HR MIN TEMP:  46; 6HR MAX TEMP:  56;



SKY/WX REPORTED AS FAIR MEANS FEW OR NO CLOUDS BELOW
12 THOUSAND FEET.





USA.gov is the U.S. government's official web portal to all federal, state and local government web resources and services.